Location: Appleton
(44.2618°N, 88.4157°W)
Time: 04:06:21
(UTC+00:00)

S-56A Canister/Altair - Pass Details

Date: 05 March 2021
Orbit: 632 x 2500 km, 38.9° (Epoch: 14 April)

Event Time Altitude Azimuth Distance (km) Brightness Sun altitude
Rises 18:30:15 0° 224° (SW) 5,216 12.4 39.7°
Reaches altitude 10° 18:33:30 10° 218° (SW) 4,440 12.3 39.6°
Maximum altitude 18:45:36 49° 150° (SSE) 2,906 11.6 39.2°
Drops below altitude 10° 18:59:42 10° 82° (E) 5,143 11.6 38.5°
Sets 19:03:46 0° 78° (ENE) 6,080 11.9 38.3°
